Regional Weather Roundup
Issued by NWS Sterling, VA

Home | Current Version | Previous Version | Graphics & Text | Print | Product List | Glossary On
Versions: 1 2 3 4 5 6 7 8 9 10 11 12 13 14 15 16 17 18 19 20 21 22 23 24 25 26 27
000
ASUS41 KLWX 211810
RWRLWX

REGIONAL WEATHER ROUNDUP
NATIONAL WEATHER SERVICE BALTIMORE MD/WASHINGTON DC
100 PM EST SAT JAN 21 2017

Note: "FAIR" indicates few or no clouds below 12,000 feet
with no significant weather and/or obstructions to visibility.
 TC=TEMPERATURE CELSIUS

 * =Non NWS site. Station does not report precipitation (e.g. rain,
    snow, etc.), thunder, or fog.

DCZ001-MDZ009-015-VAZ040>042-051-053>054-211900-
WASHINGTON METRO

CITY           SKY/WX    TMP DP  RH WIND       PRES   REMARKS
WASHINGTON NAT CLOUDY    49  48  97 S6        29.86F
DULLES         CLOUDY    48  46  93 S5        29.84F FOG
ANDREWS AFB    CLOUDY    49  48  98 CALM      29.84F
FT BELVOIR     CLOUDY    49  47  95 S5        29.85F
QUANTICO       FOG       48  48 100 S6        29.85F VSB 1/4
COLLEGE PARK*  CLOUDY    46  45  93 CALM      29.85F
LEESBURG*      CLOUDY    50  50 100 SE6       29.85F FOG
MANASSAS*      CLOUDY   N/A N/A N/A CALM      29.85F FOG
GAITHERSBURG*  CLOUDY    46  45  93 SE3       29.88F

$$

MDZ006>007-011-014-211900-
BALTIMORE METRO

CITY           SKY/WX    TMP DP  RH WIND       PRES   REMARKS
BWI AIRPORT    CLOUDY    48  48 100 S3        29.85F FOG
MD SCIENCE CTR   N/A     48  45  89 MISG      29.87F
MARTIN STATE   FOG       46  46 100 SE6       29.89F VSB 1/2
ANNAPOLIS      FOG       45  44  97 SE6       29.86F VSB 1/4
FORT MEADE*    CLOUDY    46  45  93 CALM      29.88F

$$

MDZ012-015-019>023-211900-
MARYLAND EASTERN SHORE

CITY           SKY/WX    TMP DP  RH WIND       PRES   REMARKS
OCEAN CITY     CLOUDY    46  46 100 S8        29.89F FOG
SALISBURY      CLOUDY    48  48 100 VRB3      29.87F FOG
BAY BRIDGE AP* CLOUDY    46  46 100 S8        29.86F FOG
CAMBRIDGE*     CLOUDY    45  45 100 S3        29.87F
EASTON*        CLOUDY    48  46  93 SW7       29.92F FOG

$$

MDZ017>025-211900-
SOUTHERN MARYLAND

CITY           SKY/WX    TMP DP  RH WIND       PRES   REMARKS
PATUXENT RIVER CLOUDY    45  45 100 SE7       29.86F FOG
ST INIGOES     CLOUDY    48  47  96 SE5       29.86F FOG
LEONARDTOWN*   CLOUDY    46  46 100 CALM      29.87F

$$

MDZ003>005-211900-
NORTH CENTRAL MARYLAND

CITY           SKY/WX    TMP DP  RH WIND       PRES   REMARKS
FREDERICK*     CLOUDY    46  46 100 SW5       29.87F FOG
HAGERSTOWN APT FOG       45  44  97 SW3       29.83F VSB 1/2
WESTMINSTER*     N/A     46  46 100 SE6       29.83F FOG

$$

MDZ501>502-211900-
WESTERN MARYLAND

CITY           SKY/WX    TMP DP  RH WIND       PRES   REMARKS
OAKLAND*         N/A     55  43  62 SW6       29.79S
CUMBERLAND*    CLOUDY    43  43 100 CALM      29.86F VSB 1/4

$$

VAZ025>031-211900-
SHENANDOAH VALLEY

CITY           SKY/WX    TMP DP  RH WIND       PRES   REMARKS
WINCHESTER*    FOG       43  43 100 NE3       29.82F VSB 1
FRONT ROYAL*   CLOUDY    48  48 100 N3        29.81F
LURAY*         PTCLDY    52  52 100 CALM      29.80F
NEW MARKET*    PTCLDY    53  50  92 CALM      29.80F
STAUNTON*      MOSUNNY   59  51  73 CALM      29.81F
WAYNESBORO*    PTCLDY    62  49  63 SW6       29.80F

$$

WVZ021-048>050-054>055-211900-
EASTERN WEST VIRGINIA PANHANDLE

CITY           SKY/WX    TMP DP  RH WIND       PRES   REMARKS
MARTINSBURG    CLOUDY    44  43  96 CALM      29.83F FOG
PETERSBURG*    MOSUNNY   55  47  76 CALM      29.79F

$$

VAZ036>039-050-211900-
CENTRAL FOOTHILLS

CITY           SKY/WX    TMP DP  RH WIND       PRES   REMARKS
CHARLOTTESVILL CLOUDY    50  48  93 CALM      29.84F FOG
CULPEPER*      CLOUDY    49  49  97 CALM      29.85F
ORANGE*          N/A     50  50 100 CALM      29.86F
GORDONSVILLE*  CLOUDY    49  49  99 S3        29.84S
WARRENTON*     CLOUDY    50  47  89 CALM      29.84F FOG

$$

VAZ055>057-211900-
NORTH AND CENTRAL PIEDMONT

CITY           SKY/WX    TMP DP  RH WIND       PRES   REMARKS
FREDERICKSBRG* CLOUDY    51  51 100 CALM      29.83F
STAFFORD*      CLOUDY    49  49 100 S3        29.88F

$$

NCZ024-NYZ072-PAZ021-071-VAZ022-071-211900-
OTHER REGIONAL OBSERVATIONS

CITY           SKY/WX    TMP DP  RH WIND       PRES   REMARKS
NEW YORK CITY  CLOUDY    44  42  93 CALM      29.85F
PHILADELPHIA   CLOUDY    46  44  93 W7        29.87F FOG
PITTSBURGH     PTSUNNY   62  51  67 S9        29.72F
ROANOKE        CLOUDY    50  47  89 CALM      29.86F
RICHMOND       CLOUDY    49  49 100 S5        29.85F FOG
RALEIGH        FOG       53  52  96 SE6       29.86F VSB 1/8

$$

ANZ530>537-211900-
MARINE OBSERVATIONS

STATION/POSITION TIME  TEMP    WIND        PRES
                       AIR SEA DIR/SP/G
                 (UTC) (F)     (DEG/KT/KT) (MB)
THOMAS PT LIGHT  1800   43 40  150/ 10/ 10   N/A
BALT KEY BRIDGE  1748   43     110/  6/  7 1011.5F
COVE POINT       1748   42     170/  8/  9 1012.0F
LEWISETTA        1748   47 45   90/  2/  3 1011.0F
SOLOMONS ISLAND  1748   45 41  120/  3/  3   N/A
PINEY POINT      1748          110/  4/  4   N/A

$$





USA.gov is the U.S. government's official web portal to all federal, state and local government web resources and services.